VE3FWM-1 Weather Reports


time (UTC)temp
C
wind
direction
speed
KPH
gust
KPH
rain 1hr
cm
rain 24hr
cm
rain mn
cm
humidity
%
barometer
mb
20260510141516 5 11 16.1 27.4 0.00 0.10 0.05 79 1012.9
20260510140016 5 318 19.3 27.4 0.00 0.10 0.05 80 1012.6
20260510134516 5 322 12.9 25.7 0.00 0.10 0.05 82 1012.4
20260510133021 5 333 9.7 22.5 0.00 0.10 0.05 81 1012.4
20260510131519 5 344 14.5 24.1 0.00 0.10 0.05 81 1012.2
20260510130017 5 336 14.5 24.1 0.00 0.10 0.05 82 1011.9
20260510124516 5 331 16.1 20.9 0.00 0.10 0.05 81 1011.7
20260510123017 5 278 6.4 24.1 0.00 0.10 0.05 81 1011.5
20260510121516 5 295 6.4 20.9 0.00 0.10 0.05 81 1011.4
20260510120022 5 324 4.8 17.7 0.03 0.10 0.05 81 1011.2
20260510114516 5 298 4.8 19.3 0.03 0.10 0.05 80 1010.9
20260510113016 5 337 3.2 17.7 0.03 0.10 0.05 79 1010.8
20260510111517 5 332 1.6 16.1 0.03 0.10 0.05 80 1010.5
20260510110024 4 276 3.2 14.5 0.00 0.08 0.03 80 1010.2
20260510104516 4 262 1.6 14.5 0.00 0.08 0.03 81 1009.8
20260510103016 4 329 3.2 12.9 0.00 0.08 0.03 82 1009.6
20260510101516 3 315 8.0 14.5 0.00 0.08 0.03 82 1009.3
20260510100016 3 321 3.2 12.9 0.00 0.08 0.03 83 1009.1
20260510094526 3 313 4.8 14.5 0.00 0.08 0.03 83 1008.7
20260510093017 3 323 1.6 8.0 0.00 0.08 0.03 83 1008.5
20260510091521 3 20 0.0 3.2 0.00 0.08 0.03 82 1008.4
20260510090017 3 360 0.0 6.4 0.00 0.08 0.03 81 1008.0
20260510084517 3 286 0.0 8.0 0.00 0.08 0.03 81 1007.9
20260510083017 3 211 1.6 9.7 0.00 0.08 0.03 81 1007.6
20260510081516 3 320 1.6 8.0 0.03 0.08 0.03 81 1007.5
20260510080016 4 289 1.6 6.4 0.03 0.08 0.03 81 1007.2
20260510074517 4 284 0.0 4.8 0.03 0.08 0.03 80 1007.3
20260510073016 4 252 1.6 6.4 0.03 0.08 0.03 80 1007.3
20260510071517 5 281 1.6 8.0 0.00 0.05 0.00 79 1007.2
20260510070017 5 277 1.6 9.7 0.00 0.05 0.00 79 1007.0
20260510064517 5 332 4.8 19.3 0.00 0.05 0.00 79 1006.8
20260510063017 5 322 3.2 16.1 0.00 0.05 0.00 79 1006.6
20260510061526 6 271 11.3 24.1 0.00 0.05 0.00 77 1006.5
20260510060038 6 325 6.4 17.7 0.00 0.05 0.00 76 1006.4
20260510054517 6 322 4.8 17.7 0.00 0.05 0.00 78 1006.4
20260510053017 6 248 1.6 8.0 0.00 0.05 0.00 76 1006.3
20260510051518 6 318 1.6 14.5 0.00 0.05 0.00 76 1006.0
20260510050021 6 307 4.8 16.1 0.00 0.05 0.00 77 1005.8
20260510044518 6 277 0.0 4.8 0.00 0.05 0.00 77 1005.5
20260510043018 6 277 1.6 4.8 0.00 0.05 0.00 78 1005.3
20260510041518 6 277 1.6 4.8 0.03 0.05 0.00 79 1005.0
20260510040017 7 277 0.0 4.8 0.03 0.05 0.00 79 1005.0
20260510034517 7 285 0.0 6.4 0.03 0.08 0.05 79 1004.8
20260510033017 7 221 0.0 4.8 0.03 0.08 0.05 80 1004.8
20260510031517 7 277 0.0 4.8 0.00 0.05 0.03 82 1004.5
20260510030020 7 275 0.0 3.2 0.00 0.05 0.03 82 1004.6
20260510024517 7 275 0.0 4.8 0.00 0.05 0.03 81 1004.4
20260510023033 7 297 0.0 3.2 0.00 0.05 0.03 81 1004.4
20260510021518 7 340 0.0 6.4 0.00 0.05 0.03 82 1004.2
20260510020017 7 316 0.0 12.9 0.00 0.05 0.03 83 1004.0
20260510014517 8 316 3.2 12.9 0.00 0.05 0.03 83 1003.4
20260510013017 8 329 6.4 14.5 0.00 0.05 0.03 83 1002.9
20260510011523 8 322 11.3 20.9 0.03 0.05 0.03 82 1002.7
20260510010023 8 324 16.1 24.1 0.03 0.05 0.03 82 1002.4
20260510004517 9 327 19.3 30.6 0.03 0.05 0.03 82 1002.1
20260510003018 10 319 19.3 29.0 0.03 0.05 0.03 88 1001.7
20260510001518 10 225 1.6 4.8 0.00 0.03 0.00 94 1001.2
20260510000017 10 229 0.0 4.8 0.00 0.03 0.00 94 1000.7
20260509234519 11 227 0.0 3.2 0.00 0.03 0.00 94 1000.6
20260509233019 11 232 1.6 4.8 0.00 0.03 0.00 94 1000.6
20260509231517 11 232 3.2 8.0 0.00 0.03 0.00 94 1000.6
20260509230017 10 261 1.6 4.8 0.00 0.03 0.00 95 1000.2
20260509224517 10 262 0.0 3.2 0.00 0.03 0.00 94 1000.2
20260509223020 10 262 1.6 4.8 0.00 0.03 0.00 93 1000.1
20260509221518 10 263 0.0 3.2 0.00 0.03 0.00 92 1000.1
20260509220020 10 271 0.0 4.8 0.00 0.03 0.00 90 1000.5
20260509214517 11 226 4.8 17.7 0.00 0.03 0.00 87 1000.8
20260509213018 12 360 0.0 9.7 0.00 0.03 0.00 88 1000.4
20260509211539 12 360 3.2 16.1 0.00 0.03 0.00 85 999.8
20260509210017 13 360 4.8 14.5 0.00 0.03 0.00 83 999.5
20260509204518 14 360 6.4 14.5 0.00 0.03 0.00 79 998.9
20260509203033 15 360 8.0 19.3 0.00 0.03 0.00 74 998.7
20260509201521 15 360 8.0 17.7 0.00 0.03 0.00 72 998.8
20260509200018 16 360 8.0 14.5 0.00 0.03 0.00 71 998.9
20260509194517 16 360 9.7 17.7 0.00 0.03 0.00 69 999.2
20260509193017 15 360 4.8 14.5 0.00 0.03 0.00 73 999.3
20260509191519 15 360 4.8 14.5 0.00 0.03 0.00 73 999.5
20260509190022 15 360 4.8 9.7 0.00 0.03 0.00 75 999.6
20260509184517 16 360 4.8 14.5 0.00 0.03 0.00 70 999.9
20260509183022 16 360 4.8 12.9 0.00 0.03 0.00 70 999.9
20260509181518 15 360 4.8 12.9 0.00 0.03 0.00 70 999.9
20260509180018 16 360 4.8 14.5 0.00 0.03 0.00 68 1000.5
20260509174518 16 360 4.8 14.5 0.00 0.03 0.00 69 1000.7
20260509173019 16 360 6.4 12.9 0.00 0.03 0.00 71 1001.3
20260509171518 16 360 4.8 14.5 0.00 0.03 0.00 71 1001.6
20260509170018 15 360 4.8 17.7 0.00 0.03 0.00 72 1001.8
20260509164518 15 360 4.8 12.9 0.00 0.03 0.00 72 1002.2
20260509163022 15 360 4.8 14.5 0.00 0.03 0.00 71 1002.6
20260509161519 16 360 4.8 12.9 0.00 0.03 0.00 70 1002.7
20260509160019 16 360 4.8 14.5 0.00 0.03 0.00 70 1002.7
20260509154518 15 360 4.8 12.9 0.00 0.03 0.00 71 1002.9
20260509153021 15 360 6.4 14.5 0.00 0.03 0.00 71 1003.0
20260509151519 15 360 3.2 14.5 0.00 0.03 0.00 72 1003.0
20260509150018 15 360 3.2 16.1 0.00 0.03 0.00 73 1003.3
20260509144518 14 360 4.8 14.5 0.00 0.03 0.00 73 1003.4
20260509143023 13 360 3.2 12.9 0.00 0.03 0.00 75 1003.3